TimeEDT,TemperatureF,Dew PointF,Humidity,Sea Level PressureIn,VisibilityMPH,Wind Direction,Wind SpeedMPH,Gust SpeedMPH,PrecipitationIn,Events,Conditions,WindDirDegrees,DateUTC
12:15 AM,59.0,55.4,88,30.28,10.0,Calm,Calm,-,N/A,,Clear,0,2013-08-25 04:15:00
12:35 AM,59.0,55.4,88,30.27,10.0,Calm,Calm,-,N/A,,Clear,0,2013-08-25 04:35:00
12:55 AM,59.0,55.4,88,30.28,10.0,Calm,Calm,-,N/A,,Clear,0,2013-08-25 04:55:00
1:15 AM,60.8,55.4,82,30.28,10.0,Calm,Calm,-,N/A,,Clear,0,2013-08-25 05:15:00
1:35 AM,59.0,55.4,88,30.27,10.0,Calm,Calm,-,N/A,,Clear,0,2013-08-25 05:35:00
1:55 AM,59.0,55.4,88,30.28,10.0,Calm,Calm,-,N/A,,Clear,0,2013-08-25 05:55:00
2:15 AM,59.0,55.4,88,30.27,10.0,ESE,3.5,-,N/A,,Clear,120,2013-08-25 06:15:00
2:35 AM,59.0,55.4,88,30.28,10.0,Calm,Calm,-,N/A,,Clear,0,2013-08-25 06:35:00
2:55 AM,59.0,55.4,88,30.28,10.0,Calm,Calm,-,N/A,,Clear,0,2013-08-25 06:55:00
3:15 AM,59.0,55.4,88,30.28,10.0,Calm,Calm,-,N/A,,Clear,0,2013-08-25 07:15:00
3:35 AM,57.2,55.4,94,30.28,10.0,Calm,Calm,-,N/A,,Clear,0,2013-08-25 07:35:00
3:55 AM,59.0,55.4,88,30.28,10.0,Calm,Calm,-,N/A,,Clear,0,2013-08-25 07:55:00
4:15 AM,59.0,55.4,88,30.28,10.0,ESE,3.5,-,N/A,,Clear,110,2013-08-25 08:15:00
4:35 AM,59.0,55.4,88,30.28,10.0,ESE,3.5,-,N/A,,Clear,110,2013-08-25 08:35:00
4:55 AM,59.0,55.4,88,30.29,10.0,Calm,Calm,-,N/A,,Clear,0,2013-08-25 08:55:00
5:15 AM,59.0,55.4,88,30.29,7.0,Calm,Calm,-,N/A,,Clear,0,2013-08-25 09:15:00
5:35 AM,57.2,55.4,94,30.29,10.0,Calm,Calm,-,N/A,,Clear,0,2013-08-25 09:35:00
5:55 AM,55.4,55.4,100,30.29,10.0,Calm,Calm,-,N/A,,Clear,0,2013-08-25 09:55:00
6:15 AM,57.2,55.4,94,30.29,10.0,Calm,Calm,-,N/A,,Clear,0,2013-08-25 10:15:00
6:35 AM,59.0,55.4,88,30.30,10.0,Calm,Calm,-,N/A,,Clear,0,2013-08-25 10:35:00
6:55 AM,59.0,55.4,88,30.30,10.0,Calm,Calm,-,N/A,,Clear,0,2013-08-25 10:55:00
7:15 AM,59.0,55.4,88,30.30,10.0,Calm,Calm,-,N/A,,Clear,0,2013-08-25 11:15:00
7:35 AM,59.0,55.4,88,30.31,10.0,Calm,Calm,-,N/A,,Clear,0,2013-08-25 11:35:00
7:55 AM,60.8,57.2,88,30.31,10.0,Calm,Calm,-,N/A,,Clear,0,2013-08-25 11:55:00
8:15 AM,64.4,59.0,83,30.31,10.0,Calm,Calm,-,N/A,,Clear,0,2013-08-25 12:15:00
8:35 AM,64.4,59.0,83,30.32,10.0,South,4.6,-,N/A,,Clear,190,2013-08-25 12:35:00
8:55 AM,66.2,59.0,78,30.32,10.0,Calm,Calm,-,N/A,,Clear,0,2013-08-25 12:55:00
9:15 AM,68.0,60.8,78,30.32,10.0,Calm,Calm,-,N/A,,Clear,0,2013-08-25 13:15:00
9:35 AM,69.8,60.8,73,30.32,10.0,South,3.5,-,N/A,,Clear,190,2013-08-25 13:35:00
9:55 AM,71.6,60.8,69,30.32,10.0,SSW,4.6,-,N/A,,Clear,210,2013-08-25 13:55:00
10:15 AM,73.4,60.8,65,30.32,10.0,SW,5.8,-,N/A,,Unknown,230,2013-08-25 14:15:00
10:35 AM,75.2,60.8,61,30.33,10.0,SSW,4.6,-,N/A,,Unknown,210,2013-08-25 14:35:00
10:55 AM,77.0,62.6,61,30.32,10.0,SSW,3.5,-,N/A,,Unknown,210,2013-08-25 14:55:00
11:15 AM,78.8,62.6,57,30.32,10.0,WSW,6.9,-,N/A,,Clear,250,2013-08-25 15:15:00
11:35 AM,78.8,62.6,57,30.32,10.0,WSW,6.9,-,N/A,,Clear,250,2013-08-25 15:35:00
11:55 AM,80.6,62.6,54,30.32,10.0,SSW,4.6,-,N/A,,Clear,200,2013-08-25 15:55:00
12:15 PM,80.6,60.8,51,30.32,10.0,WSW,6.9,-,N/A,,Clear,240,2013-08-25 16:15:00
12:35 PM,82.4,60.8,48,30.31,10.0,West,8.1,-,N/A,,Clear,270,2013-08-25 16:35:00
12:55 PM,82.4,60.8,48,30.30,10.0,WSW,5.8,-,N/A,,Clear,240,2013-08-25 16:55:00
1:15 PM,82.4,60.8,48,30.30,10.0,West,11.5,-,N/A,,Clear,260,2013-08-25 17:15:00
1:35 PM,84.2,60.8,45,30.29,10.0,WSW,8.1,-,N/A,,Clear,240,2013-08-25 17:35:00
1:55 PM,84.2,60.8,45,30.29,10.0,WSW,6.9,-,N/A,,Clear,250,2013-08-25 17:55:00
2:15 PM,82.4,60.8,48,30.28,10.0,SSW,6.9,-,N/A,,Clear,210,2013-08-25 18:15:00
2:35 PM,84.2,60.8,45,30.27,10.0,WSW,6.9,-,N/A,,Clear,240,2013-08-25 18:35:00
2:55 PM,84.2,60.8,45,30.27,10.0,WSW,8.1,-,N/A,,Clear,240,2013-08-25 18:55:00
3:15 PM,84.2,60.8,45,30.26,10.0,SSW,5.8,-,N/A,,Clear,210,2013-08-25 19:15:00
3:35 PM,86.0,60.8,43,30.26,10.0,WSW,6.9,-,N/A,,Clear,240,2013-08-25 19:35:00
3:55 PM,86.0,60.8,43,30.25,10.0,WSW,6.9,-,N/A,,Clear,250,2013-08-25 19:55:00
4:15 PM,84.2,60.8,45,30.25,10.0,WSW,9.2,-,N/A,,Clear,250,2013-08-25 20:15:00
4:35 PM,86.0,60.8,43,30.24,10.0,SW,8.1,-,N/A,,Clear,230,2013-08-25 20:35:00
4:55 PM,84.2,60.8,45,30.23,10.0,West,10.4,-,N/A,,Clear,260,2013-08-25 20:55:00
5:15 PM,84.2,60.8,45,30.23,10.0,SSW,8.1,-,N/A,,Clear,200,2013-08-25 21:15:00
5:35 PM,84.2,60.8,45,30.23,10.0,SW,8.1,-,N/A,,Clear,230,2013-08-25 21:35:00
5:55 PM,82.4,60.8,48,30.22,10.0,SW,5.8,-,N/A,,Clear,220,2013-08-25 21:55:00
6:15 PM,82.4,60.8,48,30.22,10.0,SW,6.9,-,N/A,,Clear,220,2013-08-25 22:15:00
6:35 PM,82.4,60.8,48,30.22,10.0,SW,6.9,-,N/A,,Clear,230,2013-08-25 22:35:00
6:55 PM,82.4,60.8,48,30.22,10.0,SW,4.6,-,N/A,,Clear,230,2013-08-25 22:55:00
7:15 PM,82.4,60.8,48,30.22,10.0,Calm,Calm,-,N/A,,Clear,0,2013-08-25 23:15:00
7:35 PM,80.6,62.6,54,30.22,10.0,Calm,Calm,-,N/A,,Clear,0,2013-08-25 23:35:00
7:55 PM,80.6,62.6,54,30.21,10.0,Calm,Calm,-,N/A,,Clear,0,2013-08-25 23:55:00
8:15 PM,78.8,62.6,57,30.21,10.0,Calm,Calm,-,N/A,,Clear,0,2013-08-26 00:15:00
8:35 PM,77.0,62.6,61,30.22,10.0,Calm,Calm,-,N/A,,Clear,0,2013-08-26 00:35:00
8:55 PM,77.0,62.6,61,30.21,10.0,SSW,4.6,-,N/A,,Clear,200,2013-08-26 00:55:00
9:15 PM,77.0,62.6,61,30.22,10.0,SSW,3.5,-,N/A,,Clear,210,2013-08-26 01:15:00
9:35 PM,75.2,62.6,65,30.22,10.0,SSW,3.5,-,N/A,,Clear,210,2013-08-26 01:35:00
9:55 PM,73.4,62.6,69,30.22,10.0,Calm,Calm,-,N/A,,Clear,0,2013-08-26 01:55:00
10:15 PM,73.4,62.6,69,30.23,10.0,SSW,3.5,-,N/A,,Clear,210,2013-08-26 02:15:00
10:35 PM,73.4,62.6,69,30.23,10.0,Calm,Calm,-,N/A,,Clear,0,2013-08-26 02:35:00
10:55 PM,73.4,62.6,69,30.24,10.0,Calm,Calm,-,N/A,,Clear,0,2013-08-26 02:55:00
11:15 PM,69.8,62.6,78,30.24,10.0,Calm,Calm,-,N/A,,Clear,0,2013-08-26 03:15:00
11:35 PM,69.8,62.6,78,30.24,10.0,Calm,Calm,-,N/A,,Clear,0,2013-08-26 03:35:00
11:55 PM,69.8,62.6,78,30.24,10.0,Calm,Calm,-,N/A,,Clear,0,2013-08-26 03:55:00